Time,TemperatureF,DewpointF,PressureIn,WindDirection,WindDirectionDegrees,WindSpeedMPH,WindSpeedGustMPH,Humidity,HourlyPrecipIn,Conditions,Clouds,dailyrainin,SoftwareType,DateUTC
2013-09-28 00:01:00,48.6,23.5,29.91,South,185,5.4,5.4,37,0.00,,---,0.00,VWS V14.01,2013-09-28 06:01:00,
2013-09-28 00:06:00,48.7,23.0,29.91,SSE,166,6.3,6.7,36,0.00,,---,0.00,VWS V14.01,2013-09-28 06:06:00,
2013-09-28 00:11:00,48.7,23.0,29.91,SSE,154,3.1,6.7,36,0.00,,---,0.00,VWS V14.01,2013-09-28 06:11:00,
2013-09-28 00:16:00,48.7,23.6,29.91,SW,227,4.0,5.8,37,0.00,,---,0.00,VWS V14.01,2013-09-28 06:16:00,
2013-09-28 00:21:00,48.7,23.6,29.91,SE,146,3.6,8.3,37,0.00,,---,0.00,VWS V14.01,2013-09-28 06:21:00,
2013-09-28 00:26:00,48.7,23.6,29.91,SSW,193,6.3,8.3,37,0.00,,---,0.00,VWS V14.01,2013-09-28 06:26:00,
2013-09-28 00:31:00,48.7,23.6,29.91,SSW,208,4.9,7.6,37,0.00,,---,0.00,VWS V14.01,2013-09-28 06:31:00,
2013-09-28 00:36:00,48.7,23.6,29.91,South,184,3.6,8.7,37,0.00,,---,0.00,VWS V14.01,2013-09-28 06:36:00,
2013-09-28 00:41:00,48.7,23.6,29.91,SSE,152,5.4,8.7,37,0.00,,---,0.00,VWS V14.01,2013-09-28 06:41:00,
2013-09-28 00:46:00,48.7,23.6,29.91,SW,234,4.0,4.9,37,0.00,,---,0.00,VWS V14.01,2013-09-28 06:46:00,
2013-09-28 00:51:00,48.4,23.3,29.91,SSW,195,5.8,5.8,37,0.00,,---,0.00,VWS V14.01,2013-09-28 06:51:00,
2013-09-28 00:56:00,48.2,23.2,29.91,West,260,0.0,6.3,37,0.00,,---,0.00,VWS V14.01,2013-09-28 06:56:00,
2013-09-28 01:01:00,48.0,23.0,29.91,West,261,0.0,0.0,37,0.00,,---,0.00,VWS V14.01,2013-09-28 07:01:00,
2013-09-28 01:06:00,47.8,22.9,29.91,WSW,256,0.0,2.2,37,0.00,,---,0.00,VWS V14.01,2013-09-28 07:06:00,
2013-09-28 01:11:00,47.8,23.5,29.91,SW,217,0.0,3.6,38,0.00,,---,0.00,VWS V14.01,2013-09-28 07:11:00,
2013-09-28 01:16:00,47.5,23.2,29.91,SW,223,0.0,0.0,38,0.00,,---,0.00,VWS V14.01,2013-09-28 07:16:00,
2013-09-28 01:21:00,47.5,23.2,29.91,SW,217,2.7,4.0,38,0.00,,---,0.00,VWS V14.01,2013-09-28 07:21:00,
2013-09-28 01:26:00,47.7,23.3,29.91,WSW,258,0.0,4.0,38,0.00,,---,0.00,VWS V14.01,2013-09-28 07:26:00,
2013-09-28 01:31:00,47.7,23.3,29.91,West,260,3.1,3.6,38,0.00,,---,0.00,VWS V14.01,2013-09-28 07:31:00,
2013-09-28 01:36:00,47.7,23.3,29.91,SW,217,2.7,5.4,38,0.00,,---,0.00,VWS V14.01,2013-09-28 07:36:00,
2013-09-28 01:41:00,47.7,23.3,29.91,SSW,195,3.1,5.8,38,0.00,,---,0.00,VWS V14.01,2013-09-28 07:41:00,
2013-09-28 01:46:00,47.7,23.3,29.91,WSW,252,2.7,3.6,38,0.00,,---,0.00,VWS V14.01,2013-09-28 07:46:00,
2013-09-28 01:51:00,47.5,23.2,29.91,SSW,202,0.0,3.6,38,0.00,,---,0.00,VWS V14.01,2013-09-28 07:51:00,
2013-09-28 01:56:00,47.3,23.0,29.91,South,170,0.0,3.6,38,0.00,,---,0.00,VWS V14.01,2013-09-28 07:56:00,
2013-09-28 02:01:00,46.9,22.7,29.91,SE,126,0.0,0.0,38,0.00,,---,0.00,VWS V14.01,2013-09-28 08:01:00,
2013-09-28 02:06:00,46.9,23.3,29.91,SE,126,0.0,0.0,39,0.00,,---,0.00,VWS V14.01,2013-09-28 08:06:00,
2013-09-28 02:11:00,46.6,23.0,29.91,SE,126,0.0,0.0,39,0.00,,---,0.00,VWS V14.01,2013-09-28 08:11:00,
2013-09-28 02:16:00,46.0,23.1,29.91,SSE,164,3.6,3.6,40,0.00,,---,0.00,VWS V14.01,2013-09-28 08:16:00,
2013-09-28 02:21:00,46.4,23.4,29.91,South,176,5.4,6.3,40,0.00,,---,0.00,VWS V14.01,2013-09-28 08:21:00,
2013-09-28 02:26:00,46.8,23.7,29.91,South,183,4.0,6.3,40,0.00,,---,0.00,VWS V14.01,2013-09-28 08:26:00,
2013-09-28 02:31:00,46.8,23.7,29.91,South,181,2.7,5.4,40,0.00,,---,0.00,VWS V14.01,2013-09-28 08:31:00,
2013-09-28 02:36:00,46.9,23.9,29.91,SSE,159,5.8,7.6,40,0.00,,---,0.00,VWS V14.01,2013-09-28 08:36:00,
2013-09-28 02:41:00,47.1,24.1,29.91,SSE,156,2.7,7.6,40,0.00,,---,0.00,VWS V14.01,2013-09-28 08:41:00,
2013-09-28 02:46:00,46.9,23.9,29.91,SSE,151,6.3,6.3,40,0.00,,---,0.00,VWS V14.01,2013-09-28 08:46:00,
2013-09-28 02:51:00,46.9,23.9,29.91,SSW,201,5.4,6.3,40,0.00,,---,0.00,VWS V14.01,2013-09-28 08:51:00,
2013-09-28 02:56:00,46.9,23.9,29.91,SSE,168,4.9,6.3,40,0.00,,---,0.00,VWS V14.01,2013-09-28 08:56:00,
2013-09-28 03:01:00,46.8,24.3,29.91,South,177,5.4,5.8,41,0.00,,---,0.00,VWS V14.01,2013-09-28 09:01:00,
2013-09-28 03:06:00,46.8,24.3,29.91,South,187,4.0,8.1,41,0.00,,---,0.00,VWS V14.01,2013-09-28 09:06:00,
2013-09-28 03:11:00,46.9,24.5,29.91,SSE,148,4.5,8.1,41,0.00,,---,0.00,VWS V14.01,2013-09-28 09:11:00,
2013-09-28 03:16:00,46.8,24.3,29.91,SE,140,3.1,5.4,41,0.00,,---,0.00,VWS V14.01,2013-09-28 09:16:00,
2013-09-28 03:21:00,46.6,24.2,29.91,South,171,4.0,6.3,41,0.00,,---,0.00,VWS V14.01,2013-09-28 09:21:00,
2013-09-28 03:26:00,46.6,24.2,29.91,SE,126,3.6,7.6,41,0.00,,---,0.00,VWS V14.01,2013-09-28 09:26:00,
2013-09-28 03:31:00,46.6,24.7,29.91,SE,137,4.9,5.8,42,0.00,,---,0.00,VWS V14.01,2013-09-28 09:31:00,
2013-09-28 03:36:00,46.9,24.5,29.91,SE,141,5.8,8.1,41,0.00,,---,0.00,VWS V14.01,2013-09-28 09:36:00,
2013-09-28 03:41:00,47.1,24.6,29.91,SSE,157,7.6,8.1,41,0.00,,---,0.00,VWS V14.01,2013-09-28 09:41:00,
2013-09-28 03:46:00,47.3,24.8,29.91,SSW,211,6.3,7.2,41,0.00,,---,0.00,VWS V14.01,2013-09-28 09:46:00,
2013-09-28 03:51:00,47.3,24.8,29.91,ESE,122,4.0,8.1,41,0.00,,---,0.00,VWS V14.01,2013-09-28 09:51:00,
2013-09-28 03:56:00,47.3,24.2,29.91,SE,144,4.0,8.1,40,0.00,,---,0.00,VWS V14.01,2013-09-28 09:56:00,
2013-09-28 04:01:00,47.3,24.2,29.91,SE,126,5.8,8.1,40,0.00,,---,0.00,VWS V14.01,2013-09-28 10:01:00,
2013-09-28 04:06:00,47.3,24.2,29.91,South,177,7.6,10.1,40,0.00,,---,0.00,VWS V14.01,2013-09-28 10:06:00,
2013-09-28 04:11:00,47.3,24.2,29.91,SSE,163,5.4,10.1,40,0.00,,---,0.00,VWS V14.01,2013-09-28 10:11:00,
2013-09-28 04:16:00,46.9,24.5,29.91,SE,131,8.3,8.3,41,0.00,,---,0.00,VWS V14.01,2013-09-28 10:16:00,
2013-09-28 04:21:00,46.9,24.5,29.91,South,174,4.9,8.3,41,0.00,,---,0.00,VWS V14.01,2013-09-28 10:21:00,
2013-09-28 04:26:00,46.9,24.5,29.91,SSE,154,4.0,9.2,41,0.00,,---,0.00,VWS V14.01,2013-09-28 10:26:00,
2013-09-28 04:31:00,46.9,24.5,29.91,South,176,5.4,8.1,41,0.00,,---,0.00,VWS V14.01,2013-09-28 10:31:00,
2013-09-28 04:36:00,46.9,24.5,29.91,SE,136,5.4,8.1,41,0.00,,---,0.00,VWS V14.01,2013-09-28 10:36:00,
2013-09-28 04:41:00,46.9,24.5,29.91,South,170,7.6,8.3,41,0.00,,---,0.00,VWS V14.01,2013-09-28 10:41:00,
2013-09-28 04:46:00,46.8,24.3,29.91,SSW,195,8.3,8.3,41,0.00,,---,0.00,VWS V14.01,2013-09-28 10:46:00,
2013-09-28 04:51:00,46.8,24.3,29.91,South,185,7.6,8.3,41,0.00,,---,0.00,VWS V14.01,2013-09-28 10:51:00,
2013-09-28 04:56:00,46.8,24.9,29.91,SSW,192,5.8,10.1,42,0.00,,---,0.00,VWS V14.01,2013-09-28 10:56:00,
2013-09-28 05:01:00,46.8,24.9,29.91,SSE,159,3.6,6.3,42,0.00,,---,0.00,VWS V14.01,2013-09-28 11:01:00,
2013-09-28 05:06:00,46.8,24.9,29.91,SSE,168,7.6,8.1,42,0.00,,---,0.00,VWS V14.01,2013-09-28 11:06:00,
2013-09-28 05:11:00,46.8,24.9,29.91,South,179,5.8,8.1,42,0.00,,---,0.00,VWS V14.01,2013-09-28 11:11:00,
2013-09-28 05:16:00,46.8,24.9,29.91,SSW,211,6.3,6.3,42,0.00,,---,0.00,VWS V14.01,2013-09-28 11:16:00,
2013-09-28 05:21:00,46.6,24.7,29.91,SSW,209,5.4,8.1,42,0.00,,---,0.00,VWS V14.01,2013-09-28 11:21:00,
2013-09-28 05:26:00,46.8,25.5,29.91,SSW,213,5.4,8.1,43,0.00,,---,0.00,VWS V14.01,2013-09-28 11:26:00,
2013-09-28 05:31:00,46.8,25.5,29.91,SE,145,5.8,8.1,43,0.00,,---,0.00,VWS V14.01,2013-09-28 11:31:00,
2013-09-28 05:36:00,46.6,25.3,29.91,SSE,166,4.0,8.1,43,0.00,,---,0.00,VWS V14.01,2013-09-28 11:36:00,
2013-09-28 05:41:00,46.4,25.1,29.91,SW,216,8.7,8.7,43,0.00,,---,0.00,VWS V14.01,2013-09-28 11:41:00,
2013-09-28 05:46:00,46.4,25.7,29.91,SSW,197,10.5,10.5,44,0.00,,---,0.00,VWS V14.01,2013-09-28 11:46:00,
2013-09-28 05:51:00,46.2,25.5,29.88,SSE,161,6.3,10.5,44,0.00,,---,0.00,VWS V14.01,2013-09-28 11:51:00,
2013-09-28 05:56:00,46.2,25.5,29.88,SSW,194,7.6,10.5,44,0.00,,---,0.00,VWS V14.01,2013-09-28 11:56:00,
2013-09-28 06:01:00,46.2,26.1,29.88,SSW,207,5.8,8.3,45,0.00,,---,0.00,VWS V14.01,2013-09-28 12:01:00,
2013-09-28 06:06:00,46.0,25.9,29.88,South,178,6.3,8.3,45,0.00,,---,0.00,VWS V14.01,2013-09-28 12:06:00,
2013-09-28 06:11:00,46.0,25.9,29.88,South,184,4.9,8.3,45,0.00,,---,0.00,VWS V14.01,2013-09-28 12:11:00,
2013-09-28 06:16:00,46.0,25.9,29.88,SE,143,5.8,5.8,45,0.00,,---,0.00,VWS V14.01,2013-09-28 12:16:00,
2013-09-28 06:21:00,46.2,26.1,29.88,SE,137,3.6,7.6,45,0.00,,---,0.00,VWS V14.01,2013-09-28 12:21:00,
2013-09-28 06:26:00,46.4,26.2,29.88,SSW,193,4.9,8.3,45,0.00,,---,0.00,VWS V14.01,2013-09-28 12:26:00,
2013-09-28 06:31:00,46.6,26.4,29.88,South,174,5.8,6.3,45,0.00,,---,0.00,VWS V14.01,2013-09-28 12:31:00,
2013-09-28 06:36:00,46.6,26.4,29.88,SSW,206,8.3,8.3,45,0.00,,---,0.00,VWS V14.01,2013-09-28 12:36:00,
2013-09-28 06:41:00,46.6,26.4,29.91,South,171,4.0,8.3,45,0.00,,---,0.00,VWS V14.01,2013-09-28 12:41:00,
2013-09-28 06:46:00,46.4,26.2,29.91,South,185,5.4,7.6,45,0.00,,---,0.00,VWS V14.01,2013-09-28 12:46:00,
2013-09-28 06:51:00,46.4,26.2,29.91,SSE,168,5.4,8.3,45,0.00,,---,0.00,VWS V14.01,2013-09-28 12:51:00,
2013-09-28 06:56:00,46.2,26.6,29.88,SSE,160,4.9,8.3,46,0.00,,---,0.00,VWS V14.01,2013-09-28 12:56:00,
2013-09-28 07:01:00,46.2,27.1,29.88,South,179,7.6,7.6,47,0.00,,---,0.00,VWS V14.01,2013-09-28 13:01:00,
2013-09-28 07:06:00,46.4,27.3,29.88,SSE,157,7.6,8.1,47,0.00,,---,0.00,VWS V14.01,2013-09-28 13:06:00,
2013-09-28 07:11:00,46.4,27.3,29.91,SE,136,8.3,8.7,47,0.00,,---,0.00,VWS V14.01,2013-09-28 13:11:00,
2013-09-28 07:16:00,46.4,27.3,29.91,SE,145,5.4,10.1,47,0.00,,---,0.00,VWS V14.01,2013-09-28 13:16:00,
2013-09-28 07:21:00,46.4,27.8,29.91,SSE,160,7.6,10.1,48,0.00,,---,0.00,VWS V14.01,2013-09-28 13:21:00,
2013-09-28 07:26:00,46.2,28.1,29.91,SSE,160,7.6,10.1,49,0.00,,---,0.00,VWS V14.01,2013-09-28 13:26:00,
2013-09-28 07:31:00,46.0,28.0,29.91,SE,144,4.0,5.8,49,0.00,,---,0.00,VWS V14.01,2013-09-28 13:31:00,
2013-09-28 07:36:00,46.0,28.0,29.91,SE,146,6.3,7.6,49,0.00,,---,0.00,VWS V14.01,2013-09-28 13:36:00,
2013-09-28 07:41:00,46.0,28.0,29.88,SE,131,3.1,8.3,49,0.00,,---,0.00,VWS V14.01,2013-09-28 13:41:00,
2013-09-28 07:46:00,46.0,28.0,29.88,SE,125,4.9,6.3,49,0.00,,---,0.00,VWS V14.01,2013-09-28 13:46:00,
2013-09-28 07:51:00,46.2,28.6,29.88,SE,145,5.8,10.5,50,0.00,,---,0.00,VWS V14.01,2013-09-28 13:51:00,
2013-09-28 07:56:00,46.4,28.3,29.91,SSE,165,6.3,11.0,49,0.00,,---,0.00,VWS V14.01,2013-09-28 13:56:00,
2013-09-28 08:01:00,46.8,28.6,29.91,SE,139,5.4,8.1,49,0.00,,---,0.00,VWS V14.01,2013-09-28 14:01:00,
2013-09-28 08:06:00,46.9,28.3,29.91,SSE,160,5.8,8.7,48,0.00,,---,0.00,VWS V14.01,2013-09-28 14:06:00,
2013-09-28 08:11:00,46.9,28.3,29.91,ESE,123,10.1,10.5,48,0.00,,---,0.00,VWS V14.01,2013-09-28 14:11:00,
2013-09-28 08:16:00,46.9,28.3,29.91,South,181,5.8,6.3,48,0.00,,---,0.00,VWS V14.01,2013-09-28 14:16:00,
2013-09-28 08:21:00,46.9,28.8,29.91,SSE,159,4.9,8.3,49,0.00,,---,0.00,VWS V14.01,2013-09-28 14:21:00,
2013-09-28 08:26:00,46.9,28.8,29.91,ESE,119,4.0,8.3,49,0.00,,---,0.00,VWS V14.01,2013-09-28 14:26:00,
2013-09-28 08:31:00,47.3,29.1,29.91,South,180,4.9,5.4,49,0.00,,---,0.00,VWS V14.01,2013-09-28 14:31:00,
2013-09-28 08:36:00,47.5,28.8,29.91,SSE,156,7.6,8.3,48,0.00,,---,0.00,VWS V14.01,2013-09-28 14:36:00,
2013-09-28 08:41:00,47.7,29.0,29.91,South,181,4.0,8.3,48,0.00,,---,0.00,VWS V14.01,2013-09-28 14:41:00,
2013-09-28 08:46:00,47.7,29.0,29.91,South,190,5.8,6.3,48,0.00,,---,0.00,VWS V14.01,2013-09-28 14:46:00,
2013-09-28 08:51:00,47.8,28.6,29.91,South,170,4.0,6.3,47,0.00,,---,0.00,VWS V14.01,2013-09-28 14:51:00,
2013-09-28 08:56:00,48.0,28.8,29.91,SE,138,4.0,7.6,47,0.00,,---,0.00,VWS V14.01,2013-09-28 14:56:00,
2013-09-28 09:01:00,48.2,28.9,29.91,SE,144,2.7,4.0,47,0.00,,---,0.00,VWS V14.01,2013-09-28 15:01:00,
2013-09-28 09:06:00,49.3,29.9,29.91,SE,128,4.0,4.9,47,0.00,,---,0.00,VWS V14.01,2013-09-28 15:06:00,
2013-09-28 09:11:00,50.0,30.0,29.91,SE,135,3.1,6.3,46,0.00,,---,0.00,VWS V14.01,2013-09-28 15:11:00,
2013-09-28 09:16:00,50.2,29.7,29.91,SE,135,2.7,4.0,45,0.00,,---,0.00,VWS V14.01,2013-09-28 15:16:00,
2013-09-28 09:21:00,50.2,29.1,29.91,East,88,0.0,4.0,44,0.00,,---,0.00,VWS V14.01,2013-09-28 15:21:00,
2013-09-28 09:26:00,50.9,28.6,29.91,South,186,6.3,8.3,42,0.00,,---,0.00,VWS V14.01,2013-09-28 15:26:00,
2013-09-28 09:31:00,51.8,28.3,29.88,SE,126,4.0,5.4,40,0.00,,---,0.00,VWS V14.01,2013-09-28 15:31:00,
2013-09-28 09:36:00,52.0,27.8,29.88,ESE,109,8.1,9.6,39,0.00,,---,0.00,VWS V14.01,2013-09-28 15:36:00,
2013-09-28 09:41:00,52.5,27.7,29.88,SSE,158,6.7,10.5,38,0.00,,---,0.00,VWS V14.01,2013-09-28 15:41:00,
2013-09-28 09:46:00,54.1,28.5,29.88,SE,136,6.3,8.1,37,0.00,,---,0.00,VWS V14.01,2013-09-28 15:46:00,
2013-09-28 09:51:00,55.4,28.9,29.88,SSE,153,2.7,11.0,36,0.00,,---,0.00,VWS V14.01,2013-09-28 15:51:00,
2013-09-28 09:56:00,55.2,28.8,29.88,SSE,164,8.1,14.5,36,0.00,,---,0.00,VWS V14.01,2013-09-28 15:56:00,
2013-09-28 10:01:00,55.2,28.8,29.88,SE,129,10.1,10.1,36,0.00,,---,0.00,VWS V14.01,2013-09-28 16:01:00,
2013-09-28 10:06:00,54.5,28.1,29.88,SE,140,6.7,10.5,36,0.00,,---,0.00,VWS V14.01,2013-09-28 16:06:00,
2013-09-28 10:10:00,53.4,27.1,29.88,SE,141,8.3,12.8,36,0.00,,---,0.00,VWS V14.01,2013-09-28 16:10:00,
2013-09-28 10:15:00,53.1,27.5,29.88,ESE,112,8.1,14.1,37,0.00,,---,0.00,VWS V14.01,2013-09-28 16:15:00,
2013-09-28 10:21:00,53.1,27.5,29.88,SSE,154,5.8,14.1,37,0.00,,---,0.00,VWS V14.01,2013-09-28 16:21:00,
2013-09-28 10:26:00,53.6,27.3,29.88,SSW,195,6.3,14.1,36,0.00,,---,0.00,VWS V14.01,2013-09-28 16:26:00,
2013-09-28 10:31:00,54.0,27.6,29.88,ENE,77,7.2,8.1,36,0.00,,---,0.00,VWS V14.01,2013-09-28 16:31:00,
2013-09-28 10:36:00,54.5,28.1,29.88,South,177,5.8,8.7,36,0.00,,---,0.00,VWS V14.01,2013-09-28 16:36:00,
2013-09-28 10:40:00,54.9,28.4,29.88,SSW,194,5.4,11.4,36,0.00,,---,0.00,VWS V14.01,2013-09-28 16:40:00,
2013-09-28 10:45:00,56.1,28.9,29.88,SSE,154,11.4,12.8,35,0.00,,---,0.00,VWS V14.01,2013-09-28 16:45:00,
2013-09-28 10:50:00,56.8,29.5,29.88,South,176,6.3,12.8,35,0.00,,---,0.00,VWS V14.01,2013-09-28 16:50:00,
2013-09-28 10:55:00,57.2,28.4,29.88,SSE,149,5.4,12.8,33,0.00,,---,0.00,VWS V14.01,2013-09-28 16:55:00,
2013-09-28 11:00:00,58.6,29.6,29.88,ESE,111,8.1,10.1,33,0.00,,---,0.00,VWS V14.01,2013-09-28 17:00:00,
2013-09-28 11:05:00,58.6,28.1,29.88,SE,136,8.1,12.8,31,0.00,,---,0.00,VWS V14.01,2013-09-28 17:05:00,
2013-09-28 11:10:00,58.1,28.4,29.88,SE,129,8.7,12.8,32,0.00,,---,0.00,VWS V14.01,2013-09-28 17:10:00,
2013-09-28 11:15:00,57.6,28.0,29.88,SSW,202,4.9,8.1,32,0.00,,---,0.00,VWS V14.01,2013-09-28 17:15:00,
2013-09-28 11:20:00,57.4,27.8,29.88,SE,144,5.8,12.3,32,0.00,,---,0.00,VWS V14.01,2013-09-28 17:20:00,
2013-09-28 11:25:00,57.4,27.8,29.88,South,189,5.8,12.3,32,0.00,,---,0.00,VWS V14.01,2013-09-28 17:25:00,
2013-09-28 11:30:00,58.1,29.2,29.88,SSE,153,5.8,8.7,33,0.00,,---,0.00,VWS V14.01,2013-09-28 17:30:00,
2013-09-28 11:35:00,59.2,29.4,29.88,SE,144,8.7,11.0,32,0.00,,---,0.00,VWS V14.01,2013-09-28 17:35:00,
2013-09-28 11:40:00,59.0,27.6,29.88,SSE,155,8.1,11.0,30,0.00,,---,0.00,VWS V14.01,2013-09-28 17:40:00,
2013-09-28 11:45:00,59.0,28.4,29.88,NE,51,6.3,11.0,31,0.00,,---,0.00,VWS V14.01,2013-09-28 17:45:00,
2013-09-28 11:50:00,59.4,28.7,29.88,ESE,103,10.5,11.0,31,0.00,,---,0.00,VWS V14.01,2013-09-28 17:50:00,
2013-09-28 11:55:00,60.4,29.7,29.88,SSE,149,5.8,11.0,31,0.00,,---,0.00,VWS V14.01,2013-09-28 17:55:00,
2013-09-28 12:00:00,61.0,28.5,29.88,SSE,150,5.4,7.6,29,0.00,,---,0.00,VWS V14.01,2013-09-28 18:00:00,
2013-09-28 12:05:00,61.0,28.5,29.88,SSW,209,8.3,10.1,29,0.00,,---,0.00,VWS V14.01,2013-09-28 18:05:00,
2013-09-28 12:10:00,61.0,28.5,29.85,SE,136,6.3,12.3,29,0.00,,---,0.00,VWS V14.01,2013-09-28 18:10:00,
2013-09-28 12:15:00,61.0,28.5,29.85,SSE,159,7.6,7.6,29,0.00,,---,0.00,VWS V14.01,2013-09-28 18:15:00,
2013-09-28 12:20:00,61.2,28.7,29.85,SSE,158,8.1,10.5,29,0.00,,---,0.00,VWS V14.01,2013-09-28 18:20:00,
2013-09-28 12:25:00,61.9,28.4,29.85,East,94,8.3,10.5,28,0.00,,---,0.00,VWS V14.01,2013-09-28 18:25:00,
2013-09-28 12:30:00,61.0,27.7,29.85,SE,131,5.4,10.5,28,0.00,,---,0.00,VWS V14.01,2013-09-28 18:30:00,
2013-09-28 12:35:00,61.2,28.7,29.85,South,170,7.6,10.5,29,0.00,,---,0.00,VWS V14.01,2013-09-28 18:35:00,
2013-09-28 12:40:00,61.9,29.3,29.85,SE,136,5.4,10.5,29,0.00,,---,0.00,VWS V14.01,2013-09-28 18:40:00,
2013-09-28 12:45:00,62.1,29.5,29.85,SE,138,3.6,4.9,29,0.00,,---,0.00,VWS V14.01,2013-09-28 18:45:00,
2013-09-28 12:50:00,62.2,28.8,29.85,SSE,168,4.0,8.3,28,0.00,,---,0.00,VWS V14.01,2013-09-28 18:50:00,
2013-09-28 12:55:00,62.4,28.9,29.85,ESE,118,9.6,15.0,28,0.00,,---,0.00,VWS V14.01,2013-09-28 18:55:00,
2013-09-28 13:00:00,62.4,28.9,29.85,SW,216,5.4,7.6,28,0.00,,---,0.00,VWS V14.01,2013-09-28 19:00:00,
2013-09-28 13:05:00,62.6,28.2,29.85,SE,126,10.5,12.8,27,0.00,,---,0.00,VWS V14.01,2013-09-28 19:05:00,
2013-09-28 13:10:00,61.3,28.0,29.85,ESE,104,8.1,12.8,28,0.00,,---,0.00,VWS V14.01,2013-09-28 19:10:00,
2013-09-28 13:15:00,60.1,27.7,29.85,SSE,155,8.1,8.3,29,0.00,,---,0.00,VWS V14.01,2013-09-28 19:15:00,
2013-09-28 13:20:00,59.9,28.4,29.85,SE,143,7.6,8.7,30,0.00,,---,0.00,VWS V14.01,2013-09-28 19:20:00,
2013-09-28 13:25:00,59.7,28.3,29.85,SE,139,7.2,10.1,30,0.00,,---,0.00,VWS V14.01,2013-09-28 19:25:00,
2013-09-28 13:30:00,59.7,28.3,29.85,ESE,112,8.7,8.7,30,0.00,,---,0.00,VWS V14.01,2013-09-28 19:30:00,
2013-09-28 13:35:00,60.1,28.6,29.85,SE,131,8.1,11.0,30,0.00,,---,0.00,VWS V14.01,2013-09-28 19:35:00,
2013-09-28 13:40:00,59.2,27.8,29.85,East,96,6.3,13.2,30,0.00,,---,0.00,VWS V14.01,2013-09-28 19:40:00,
2013-09-28 13:45:00,58.6,28.1,29.85,SSE,154,5.8,6.7,31,0.00,,---,0.00,VWS V14.01,2013-09-28 19:45:00,
2013-09-28 13:50:00,58.6,28.1,29.85,SE,130,4.0,10.5,31,0.00,,---,0.00,VWS V14.01,2013-09-28 19:50:00,
2013-09-28 13:55:00,59.2,29.4,29.85,SSE,150,5.8,10.5,32,0.00,,---,0.00,VWS V14.01,2013-09-28 19:55:00,
2013-09-28 14:00:00,59.4,28.7,29.85,SE,138,5.8,8.7,31,0.00,,---,0.00,VWS V14.01,2013-09-28 20:00:00,
2013-09-28 14:05:00,60.3,30.3,29.85,SSE,157,8.3,10.5,32,0.00,,---,0.00,VWS V14.01,2013-09-28 20:05:00,
2013-09-28 14:10:00,61.7,30.0,29.85,SE,139,8.3,12.3,30,0.00,,---,0.00,VWS V14.01,2013-09-28 20:10:00,
2013-09-28 14:15:00,63.0,30.2,29.85,SE,128,8.1,10.1,29,0.00,,---,0.00,VWS V14.01,2013-09-28 20:15:00,
2013-09-28 14:20:00,63.3,29.7,29.85,ESE,115,8.7,11.0,28,0.00,,---,0.00,VWS V14.01,2013-09-28 20:20:00,
2013-09-28 14:25:00,63.5,29.8,29.85,SE,146,5.4,11.0,28,0.00,,---,0.00,VWS V14.01,2013-09-28 20:25:00,
2013-09-28 14:30:00,63.5,29.8,29.85,SSE,157,7.6,7.6,28,0.00,,---,0.00,VWS V14.01,2013-09-28 20:30:00,
2013-09-28 14:35:00,63.1,29.5,29.85,SE,141,3.6,10.1,28,0.00,,---,0.00,VWS V14.01,2013-09-28 20:35:00,
2013-09-28 14:40:00,63.1,30.4,29.85,SSE,150,3.1,10.1,29,0.00,,---,0.00,VWS V14.01,2013-09-28 20:40:00,
2013-09-28 14:45:00,63.3,29.7,29.85,ESE,117,4.0,5.8,28,0.00,,---,0.00,VWS V14.01,2013-09-28 20:45:00,
2013-09-28 14:50:00,63.3,28.8,29.85,SSE,163,5.8,12.3,27,0.00,,---,0.00,VWS V14.01,2013-09-28 20:50:00,
2013-09-28 14:55:00,63.7,29.1,29.85,SSE,158,6.3,12.3,27,0.00,,---,0.00,VWS V14.01,2013-09-28 20:55:00,
2013-09-28 15:00:00,64.6,29.9,29.85,SE,142,6.3,7.6,27,0.00,,---,0.00,VWS V14.01,2013-09-28 21:00:00,
2013-09-28 15:05:00,65.5,29.7,29.85,SSE,163,5.8,8.7,26,0.00,,---,0.00,VWS V14.01,2013-09-28 21:05:00,
2013-09-28 15:10:00,65.3,29.6,29.85,SSE,157,5.8,10.5,26,0.00,,---,0.00,VWS V14.01,2013-09-28 21:10:00,
2013-09-28 15:15:00,65.5,29.7,29.85,SSE,160,5.4,5.8,26,0.00,,---,0.00,VWS V14.01,2013-09-28 21:15:00,
2013-09-28 15:20:00,65.5,29.7,29.85,SE,125,6.3,8.7,26,0.00,,---,0.00,VWS V14.01,2013-09-28 21:20:00,
2013-09-28 15:25:00,65.7,30.8,29.82,SE,127,5.4,8.7,27,0.00,,---,0.00,VWS V14.01,2013-09-28 21:25:00,
2013-09-28 15:30:00,64.8,29.1,29.82,SE,139,5.8,6.3,26,0.00,,---,0.00,VWS V14.01,2013-09-28 21:30:00,
2013-09-28 15:35:00,63.7,29.1,29.82,SSW,209,9.6,11.0,27,0.00,,---,0.00,VWS V14.01,2013-09-28 21:35:00,
2013-09-28 15:40:00,63.3,28.8,29.82,SE,129,7.6,11.0,27,0.00,,---,0.00,VWS V14.01,2013-09-28 21:40:00,
2013-09-28 15:45:00,63.3,29.7,29.82,SE,139,6.3,6.3,28,0.00,,---,0.00,VWS V14.01,2013-09-28 21:45:00,
2013-09-28 15:50:00,63.5,29.0,29.82,SE,130,10.5,10.5,27,0.00,,---,0.00,VWS V14.01,2013-09-28 21:50:00,
2013-09-28 15:55:00,63.9,29.3,29.82,South,170,7.6,12.3,27,0.00,,---,0.00,VWS V14.01,2013-09-28 21:55:00,
2013-09-28 16:00:00,63.5,29.0,29.82,SSW,195,8.3,10.1,27,0.00,,---,0.00,VWS V14.01,2013-09-28 22:00:00,
2013-09-28 16:05:00,63.3,29.7,29.82,SE,136,6.3,10.1,28,0.00,,---,0.00,VWS V14.01,2013-09-28 22:05:00,
2013-09-28 16:10:00,63.0,29.4,29.82,East,97,5.4,11.0,28,0.00,,---,0.00,VWS V14.01,2013-09-28 22:10:00,
2013-09-28 16:15:00,62.4,29.8,29.82,SE,132,7.6,7.6,29,0.00,,---,0.00,VWS V14.01,2013-09-28 22:15:00,
2013-09-28 16:20:00,62.2,29.6,29.82,SSE,166,8.3,11.0,29,0.00,,---,0.00,VWS V14.01,2013-09-28 22:20:00,
2013-09-28 16:25:00,61.7,29.1,29.82,SSE,150,7.6,11.9,29,0.00,,---,0.00,VWS V14.01,2013-09-28 22:25:00,
2013-09-28 16:30:00,61.3,28.8,29.82,SSE,163,8.3,8.3,29,0.00,,---,0.00,VWS V14.01,2013-09-28 22:30:00,
2013-09-28 16:35:00,61.2,28.7,29.82,South,178,8.1,10.5,29,0.00,,---,0.00,VWS V14.01,2013-09-28 22:35:00,
2013-09-28 16:40:00,61.0,28.5,29.82,SW,223,9.6,10.5,29,0.00,,---,0.00,VWS V14.01,2013-09-28 22:40:00,
2013-09-28 16:45:00,61.0,28.5,29.82,SSE,158,4.0,8.1,29,0.00,,---,0.00,VWS V14.01,2013-09-28 22:45:00,
2013-09-28 16:50:00,61.0,29.4,29.82,SSE,154,5.8,8.7,30,0.00,,---,0.00,VWS V14.01,2013-09-28 22:50:00,
2013-09-28 16:55:00,61.0,29.4,29.82,South,189,4.9,11.0,30,0.00,,---,0.00,VWS V14.01,2013-09-28 22:55:00,
2013-09-28 17:00:00,61.0,29.4,29.82,South,190,4.9,5.8,30,0.00,,---,0.00,VWS V14.01,2013-09-28 23:00:00,
2013-09-28 17:05:00,61.0,28.5,29.82,South,185,6.3,11.0,29,0.00,,---,0.00,VWS V14.01,2013-09-28 23:05:00,
2013-09-28 17:10:00,60.8,29.2,29.82,SSE,168,8.1,11.0,30,0.00,,---,0.00,VWS V14.01,2013-09-28 23:10:00,
2013-09-28 17:15:00,60.4,29.7,29.82,SSW,193,5.4,8.1,31,0.00,,---,0.00,VWS V14.01,2013-09-28 23:15:00,
2013-09-28 17:20:00,60.1,29.4,29.82,SSE,157,5.8,8.7,31,0.00,,---,0.00,VWS V14.01,2013-09-28 23:20:00,
2013-09-28 17:25:00,59.7,29.1,29.82,South,169,8.7,8.7,31,0.00,,---,0.00,VWS V14.01,2013-09-28 23:25:00,
2013-09-28 17:30:00,59.5,29.7,29.82,SSE,163,4.0,6.3,32,0.00,,---,0.00,VWS V14.01,2013-09-28 23:30:00,
2013-09-28 17:35:00,59.7,29.8,29.82,SSE,151,6.3,6.3,32,0.00,,---,0.00,VWS V14.01,2013-09-28 23:35:00,
2013-09-28 17:40:00,59.9,30.0,29.82,SSE,150,5.8,6.3,32,0.00,,---,0.00,VWS V14.01,2013-09-28 23:40:00,
2013-09-28 17:45:00,59.7,29.8,29.82,SSE,159,4.0,4.0,32,0.00,,---,0.00,VWS V14.01,2013-09-28 23:45:00,
2013-09-28 17:50:00,59.4,29.5,29.82,SE,146,3.6,5.8,32,0.00,,---,0.00,VWS V14.01,2013-09-28 23:50:00,
2013-09-28 17:55:00,59.4,30.3,29.82,SE,137,3.1,5.8,33,0.00,,---,0.00,VWS V14.01,2013-09-28 23:55:00,
2013-09-28 18:00:00,59.0,30.7,29.82,SE,143,3.1,5.4,34,0.00,,---,0.00,VWS V14.01,2013-09-29 00:00:00,
2013-09-28 18:05:00,58.5,30.9,29.82,SE,131,2.2,5.4,35,0.00,,---,0.00,VWS V14.01,2013-09-29 00:05:00,
2013-09-28 18:10:00,57.9,30.5,29.82,South,174,2.7,5.4,35,0.00,,---,0.00,VWS V14.01,2013-09-29 00:10:00,
2013-09-28 18:15:00,57.6,30.8,29.82,SSE,162,3.1,4.9,36,0.00,,---,0.00,VWS V14.01,2013-09-29 00:15:00,
2013-09-28 18:20:00,57.2,30.5,29.82,South,185,4.0,6.3,36,0.00,,---,0.00,VWS V14.01,2013-09-29 00:20:00,
2013-09-28 18:25:00,57.0,31.0,29.79,SSW,202,5.4,6.3,37,0.00,,---,0.00,VWS V14.01,2013-09-29 00:25:00,
2013-09-28 18:30:00,56.5,31.2,29.79,SW,218,5.4,5.4,38,0.00,,---,0.00,VWS V14.01,2013-09-29 00:30:00,
2013-09-28 18:35:00,56.1,30.9,29.79,South,179,4.0,5.8,38,0.00,,---,0.00,VWS V14.01,2013-09-29 00:35:00,
2013-09-28 18:40:00,55.6,31.0,29.79,SW,214,0.0,5.8,39,0.00,,---,0.00,VWS V14.01,2013-09-29 00:40:00,
2013-09-28 18:45:00,54.9,31.0,29.79,SSE,166,0.0,0.0,40,0.00,,---,0.00,VWS V14.01,2013-09-29 00:45:00,
2013-09-28 18:50:00,54.3,31.7,29.79,SE,141,0.0,4.0,42,0.00,,---,0.00,VWS V14.01,2013-09-29 00:50:00,
2013-09-28 18:55:00,53.8,32.4,29.79,SSE,159,2.7,4.0,44,0.00,,---,0.00,VWS V14.01,2013-09-29 00:55:00,
2013-09-28 19:00:00,53.2,32.5,29.79,SSE,159,0.0,0.0,45,0.00,,---,0.00,VWS V14.01,2013-09-29 01:00:00,
2013-09-28 19:05:00,52.7,32.5,29.79,SSE,159,0.0,0.0,46,0.00,,---,0.00,VWS V14.01,2013-09-29 01:05:00,
2013-09-28 19:10:00,52.2,32.0,29.79,SSE,159,0.0,0.0,46,0.00,,---,0.00,VWS V14.01,2013-09-29 01:10:00,
2013-09-28 19:15:00,51.6,32.6,29.79,SSE,159,0.0,0.0,48,0.00,,---,0.00,VWS V14.01,2013-09-29 01:15:00,
2013-09-28 19:20:00,51.3,32.8,29.79,SSE,168,0.0,2.7,49,0.00,,---,0.00,VWS V14.01,2013-09-29 01:20:00,
2013-09-28 19:25:00,51.1,32.6,29.79,SSE,164,0.0,2.7,49,0.00,,---,0.00,VWS V14.01,2013-09-29 01:25:00,
2013-09-28 19:30:00,50.7,33.8,29.79,SSW,212,2.7,4.0,52,0.00,,---,0.00,VWS V14.01,2013-09-29 01:30:00,
2013-09-28 19:35:00,50.5,34.1,29.79,South,187,3.1,4.0,53,0.00,,---,0.00,VWS V14.01,2013-09-29 01:35:00,
2013-09-28 19:40:00,50.4,33.9,29.79,SSW,210,2.7,4.0,53,0.00,,---,0.00,VWS V14.01,2013-09-29 01:40:00,
2013-09-28 19:45:00,50.2,34.2,29.79,South,175,2.7,2.7,54,0.00,,---,0.00,VWS V14.01,2013-09-29 01:45:00,
2013-09-28 19:50:00,50.2,35.1,29.79,SSE,157,2.2,4.9,56,0.00,,---,0.00,VWS V14.01,2013-09-29 01:50:00,
2013-09-28 19:55:00,50.4,35.3,29.79,SSE,157,0.0,4.9,56,0.00,,---,0.00,VWS V14.01,2013-09-29 01:55:00,
2013-09-28 20:00:00,50.2,34.7,29.79,SSE,157,0.0,0.0,55,0.00,,---,0.00,VWS V14.01,2013-09-29 02:00:00,
2013-09-28 20:05:00,50.2,35.1,29.79,SSE,157,0.0,0.0,56,0.00,,---,0.00,VWS V14.01,2013-09-29 02:05:00,
2013-09-28 20:10:00,50.2,35.1,29.79,South,171,3.1,3.1,56,0.00,,---,0.00,VWS V14.01,2013-09-29 02:10:00,
2013-09-28 20:16:00,50.2,35.5,29.79,SSE,157,0.0,0.0,57,0.00,,---,0.00,VWS V14.01,2013-09-29 02:16:00,
2013-09-28 20:21:00,50.0,36.2,29.79,South,184,5.4,6.3,59,0.00,,---,0.00,VWS V14.01,2013-09-29 02:21:00,
2013-09-28 20:26:00,50.2,36.4,29.79,SSE,152,0.0,6.3,59,0.00,,---,0.00,VWS V14.01,2013-09-29 02:26:00,
2013-09-28 20:31:00,50.2,36.8,29.79,South,177,0.0,3.1,60,0.00,,---,0.00,VWS V14.01,2013-09-29 02:31:00,
2013-09-28 20:36:00,50.2,36.8,29.79,South,175,0.0,3.1,60,0.00,,---,0.00,VWS V14.01,2013-09-29 02:36:00,
2013-09-28 20:41:00,50.2,36.8,29.79,SW,217,3.6,3.6,60,0.00,,---,0.00,VWS V14.01,2013-09-29 02:41:00,
2013-09-28 20:46:00,50.2,36.8,29.79,SSE,161,2.7,2.7,60,0.00,,---,0.00,VWS V14.01,2013-09-29 02:46:00,
2013-09-28 20:51:00,50.0,37.1,29.79,South,174,0.0,3.6,61,0.00,,---,0.00,VWS V14.01,2013-09-29 02:51:00,
2013-09-28 20:56:00,50.0,37.1,29.79,South,180,4.9,4.9,61,0.00,,---,0.00,VWS V14.01,2013-09-29 02:56:00,
2013-09-28 21:00:00,50.2,38.1,29.79,ESE,123,3.6,4.9,63,0.00,,---,0.00,VWS V14.01,2013-09-29 03:00:00,
2013-09-28 21:05:00,51.4,39.3,29.79,South,174,4.9,7.6,63,0.00,,---,0.00,VWS V14.01,2013-09-29 03:05:00,
2013-09-28 21:10:00,52.2,38.3,29.79,SSE,160,2.7,8.1,59,0.00,,---,0.00,VWS V14.01,2013-09-29 03:10:00,
2013-09-28 21:15:00,52.7,37.5,29.79,SSE,157,5.4,5.4,56,0.00,,---,0.00,VWS V14.01,2013-09-29 03:15:00,
2013-09-28 21:20:00,53.2,37.0,29.79,SSE,165,4.9,6.7,54,0.00,,---,0.00,VWS V14.01,2013-09-29 03:20:00,
2013-09-28 21:25:00,53.1,36.4,29.79,SE,132,4.0,6.7,53,0.00,,---,0.00,VWS V14.01,2013-09-29 03:25:00,
2013-09-28 21:31:00,53.2,36.1,29.79,South,181,3.6,4.9,52,0.00,,---,0.00,VWS V14.01,2013-09-29 03:31:00,
2013-09-28 21:35:00,53.8,34.0,29.79,SE,140,4.9,8.7,47,0.00,,---,0.00,VWS V14.01,2013-09-29 03:35:00,
2013-09-28 21:40:00,54.9,33.9,29.79,SE,129,8.3,9.6,45,0.00,,---,0.00,VWS V14.01,2013-09-29 03:40:00,
2013-09-28 21:45:00,55.2,33.1,29.79,SE,126,8.7,8.7,43,0.00,,---,0.00,VWS V14.01,2013-09-29 03:45:00,
2013-09-28 21:50:00,55.2,33.1,29.79,SSE,154,5.8,8.7,43,0.00,,---,0.00,VWS V14.01,2013-09-29 03:50:00,
2013-09-28 21:55:00,55.0,32.4,29.79,SE,143,3.6,8.7,42,0.00,,---,0.00,VWS V14.01,2013-09-29 03:55:00,
2013-09-28 22:00:00,55.0,31.8,29.79,ESE,121,5.8,6.3,41,0.00,,---,0.00,VWS V14.01,2013-09-29 04:00:00,
2013-09-28 22:01:00,55.0,31.8,29.79,SE,146,7.6,7.6,41,0.00,,---,0.00,VWS V14.01,2013-09-29 04:01:00,
2013-09-28 22:06:00,55.0,31.8,29.79,SE,135,3.6,7.6,41,0.00,,---,0.00,VWS V14.01,2013-09-29 04:06:00,
2013-09-28 22:11:00,54.9,31.6,29.79,South,173,3.1,7.6,41,0.00,,---,0.00,VWS V14.01,2013-09-29 04:11:00,
2013-09-28 22:16:00,54.7,31.5,29.79,SSE,153,3.1,5.4,41,0.00,,---,0.00,VWS V14.01,2013-09-29 04:16:00,
2013-09-28 22:21:00,54.3,31.7,29.79,SE,130,4.0,6.3,42,0.00,,---,0.00,VWS V14.01,2013-09-29 04:21:00,
2013-09-28 22:26:00,53.8,31.8,29.76,South,182,2.2,6.3,43,0.00,,---,0.00,VWS V14.01,2013-09-29 04:26:00,
2013-09-28 22:31:00,53.6,32.2,29.76,South,177,2.7,4.0,44,0.00,,---,0.00,VWS V14.01,2013-09-29 04:31:00,
2013-09-28 22:36:00,53.4,32.6,29.76,SSE,156,4.9,5.4,45,0.00,,---,0.00,VWS V14.01,2013-09-29 04:36:00,
2013-09-28 22:41:00,53.4,32.6,29.76,South,173,3.6,5.4,45,0.00,,---,0.00,VWS V14.01,2013-09-29 04:41:00,
2013-09-28 22:46:00,53.8,32.4,29.76,SSW,195,3.1,4.9,44,0.00,,---,0.00,VWS V14.01,2013-09-29 04:46:00,
2013-09-28 22:51:00,53.8,32.4,29.76,SE,143,4.0,5.8,44,0.00,,---,0.00,VWS V14.01,2013-09-29 04:51:00,
2013-09-28 22:56:00,53.8,32.4,29.76,SSE,160,4.0,5.8,44,0.00,,---,0.00,VWS V14.01,2013-09-29 04:56:00,
2013-09-28 23:01:00,54.0,32.6,29.76,SSW,196,0.0,4.0,44,0.00,,---,0.00,VWS V14.01,2013-09-29 05:01:00,
2013-09-28 23:06:00,54.0,32.0,29.76,SE,140,3.1,10.1,43,0.00,,---,0.00,VWS V14.01,2013-09-29 05:06:00,
2013-09-28 23:11:00,53.8,31.8,29.76,South,185,2.7,10.1,43,0.00,,---,0.00,VWS V14.01,2013-09-29 05:11:00,
2013-09-28 23:16:00,53.8,32.4,29.76,SSW,197,7.6,7.6,44,0.00,,---,0.00,VWS V14.01,2013-09-29 05:16:00,
2013-09-28 23:21:00,53.8,32.4,29.76,SSE,165,5.8,8.7,44,0.00,,---,0.00,VWS V14.01,2013-09-29 05:21:00,
2013-09-28 23:26:00,53.8,32.4,29.76,SSE,147,3.1,8.7,44,0.00,,---,0.00,VWS V14.01,2013-09-29 05:26:00,
2013-09-28 23:31:00,53.8,32.4,29.76,South,182,5.8,5.8,44,0.00,,---,0.00,VWS V14.01,2013-09-29 05:31:00,
2013-09-28 23:36:00,54.0,32.0,29.76,SSW,196,6.3,10.5,43,0.00,,---,0.00,VWS V14.01,2013-09-29 05:36:00,
2013-09-28 23:41:00,54.3,31.7,29.76,SE,136,4.0,10.5,42,0.00,,---,0.00,VWS V14.01,2013-09-29 05:41:00,
2013-09-28 23:46:00,54.3,31.7,29.76,SSW,194,4.0,6.3,42,0.00,,---,0.00,VWS V14.01,2013-09-29 05:46:00,
2013-09-28 23:51:00,54.3,31.7,29.76,South,170,5.8,9.6,42,0.00,,---,0.00,VWS V14.01,2013-09-29 05:51:00,
2013-09-28 23:56:00,54.1,32.2,29.76,ESE,121,4.0,9.6,43,0.00,,---,0.00,VWS V14.01,2013-09-29 05:56:00,